owner,sensor,date,latitude,longitude,vertical_datum,wind_speed,wind_to_direction,wind_speed_of_gust,qcFlag 
TABS,ioos:station:wmo:42045:1,2003-07-01T00:09:00Z,26.2168,-96.4998,4.0,2.28875512,95.01352295,4.27,'11111222,11111222,11111222' 
TABS,ioos:station:wmo:42045:1,2003-07-01T00:39:00Z,26.2168,-96.4998,4.0,2.316246964,103.7366571,4.16,'11111222,11111222,11111222' 
TABS,ioos:station:wmo:42045:1,2003-07-01T01:09:00Z,26.2168,-96.4998,4.0,1.837634349,78.38393612,3.35,'11111222,11111222,11111222' 
TABS,ioos:station:wmo:42045:1,2003-07-01T01:39:00Z,26.2168,-96.4998,4.0,1.950922859,88.23719218,3.68,'11111222,11111222,11111222' 
TABS,ioos:station:wmo:42045:1,2003-07-01T02:09:00Z,26.2168,-96.4998,4.0,1.570031847,80.83725346,3.49,'11111222,11111222,11111222' 
TABS,ioos:station:wmo:42045:1,2003-07-01T02:39:00Z,26.2168,-96.4998,4.0,2.02921167,119.8502979,3.75,'11111222,11111222,11111222' 
TABS,ioos:station:wmo:42045:1,2003-07-01T03:09:00Z,26.2168,-96.4998,4.0,1.758891696,125.045732,4.13,'11111222,11111222,11111222' 
TABS,ioos:station:wmo:42045:1,2003-07-01T03:39:00Z,26.2168,-96.4998,4.0,1.91971352,147.5519849,3.84,'11111222,11111222,11111222' 
TABS,ioos:station:wmo:42045:1,2003-07-01T04:09:00Z,26.2168,-96.4998,4.0,2.001424493,133.9881304,3.62,'11111222,11111222,11111222' 
TABS,ioos:station:wmo:42045:1,2003-07-01T04:39:00Z,26.2168,-96.4998,4.0,3.010066444,143.5110954,5.2,'11111222,11111222,11111222' 
TABS,ioos:station:wmo:42045:1,2003-07-01T05:09:00Z,26.2168,-96.4998,4.0,3.59324366,157.9323625,5.29,'11111222,11111222,11111222' 
TABS,ioos:station:wmo:42045:1,2003-07-01T05:39:00Z,26.2168,-96.4998,4.0,3.712478956,171.3244708,5.57,'11111222,11111222,11111222' 
TABS,ioos:station:wmo:42045:1,2003-07-01T06:09:00Z,26.2168,-96.4998,4.0,4.220639762,191.8958322,5.86,'11111222,11111222,11111222' 
TABS,ioos:station:wmo:42045:1,2003-07-01T06:39:00Z,26.2168,-96.4998,4.0,4.186693206,205.463496,6.01,'11111222,11111222,11111222' 
TABS,ioos:station:wmo:42045:1,2003-07-01T07:09:00Z,26.2168,-96.4998,4.0,4.00312378,205.6050272,6.38,'11111222,11111222,11111222' 
TABS,ioos:station:wmo:42045:1,2003-07-01T07:39:00Z,26.2168,-96.4998,4.0,4.524820438,209.9649057,6.76,'11111222,11111222,11111222' 
TABS,ioos:station:wmo:42045:1,2003-07-01T08:09:00Z,26.2168,-96.4998,4.0,4.742699653,213.8242239,6.71,'11111222,11111222,11111222' 
TABS,ioos:station:wmo:42045:1,2003-07-01T08:39:00Z,26.2168,-96.4998,4.0,4.641745361,212.1494446,6.77,'11111222,11111222,11111222' 
TABS,ioos:station:wmo:42045:1,2003-07-01T09:09:00Z,26.2168,-96.4998,4.0,4.524621531,214.9195308,6.45,'11111222,11111222,11111222' 
TABS,ioos:station:wmo:42045:1,2003-07-01T09:39:00Z,26.2168,-96.4998,4.0,4.937631011,226.6413652,7.22,'11111222,11111222,11111222' 
TABS,ioos:station:wmo:42045:1,2003-07-01T10:09:00Z,26.2168,-96.4998,4.0,4.676804465,223.0072635,6.73,'11111222,11111222,11111222' 
TABS,ioos:station:wmo:42045:1,2003-07-01T10:39:00Z,26.2168,-96.4998,4.0,4.2137157,237.4037386,7.02,'11111222,11111222,11111222' 
TABS,ioos:station:wmo:42045:1,2003-07-01T11:09:00Z,26.2168,-96.4998,4.0,4.238124585,258.9817398,6.17,'11111222,11111222,11111222' 
TABS,ioos:station:wmo:42045:1,2003-07-01T11:39:00Z,26.2168,-96.4998,4.0,4.342591392,268.0205237,6.93,'11111222,11111222,11111222' 
TABS,ioos:station:wmo:42045:1,2003-07-01T12:09:00Z,26.2168,-96.4998,4.0,3.911342481,259.8393008,6.02,'11111222,11111222,11111222' 
TABS,ioos:station:wmo:42045:1,2003-07-01T12:39:00Z,26.2168,-96.4998,4.0,4.133098112,272.2185765,6.38,'11111222,11111222,11111222' 
TABS,ioos:station:wmo:42045:1,2003-07-01T13:09:00Z,26.2168,-96.4998,4.0,3.961022595,271.3019496,6.34,'11111222,11111222,11111222' 
TABS,ioos:station:wmo:42045:1,2003-07-01T13:39:00Z,26.2168,-96.4998,4.0,3.992355195,278.3533384,6.01,'11111222,11111222,11111222' 
TABS,ioos:station:wmo:42045:1,2003-07-01T14:09:00Z,26.2168,-96.4998,4.0,4.205199163,304.6347521,6.3,'11111222,11111222,11111222' 
TABS,ioos:station:wmo:42045:1,2003-07-01T14:39:00Z,26.2168,-96.4998,4.0,3.321219655,305.3169965,5.46,'11111222,11111222,11111222' 
TABS,ioos:station:wmo:42045:1,2003-07-01T15:09:00Z,26.2168,-96.4998,4.0,3.296209945,313.5247964,5.34,'11111222,11111222,11111222' 
TABS,ioos:station:wmo:42045:1,2003-07-01T15:39:00Z,26.2168,-96.4998,4.0,3.498185244,306.2801687,5.39,'11111222,11111222,11111222' 
TABS,ioos:station:wmo:42045:1,2003-07-01T16:09:00Z,26.2168,-96.4998,4.0,3.204028714,325.1689993,5.11,'11111222,11111222,11111222' 
TABS,ioos:station:wmo:42045:1,2003-07-01T16:39:00Z,26.2168,-96.4998,4.0,2.448264692,323.9725004,4.35,'11111222,11111222,11111222' 
TABS,ioos:station:wmo:42045:1,2003-07-01T17:09:00Z,26.2168,-96.4998,4.0,1.5601282,323.8644974,2.93,'11111222,11111222,11111222' 
TABS,ioos:station:wmo:42045:1,2003-07-01T17:39:00Z,26.2168,-96.4998,4.0,1.043072385,355.6010945,2.05,'11111222,11111222,11111222' 
TABS,ioos:station:wmo:42045:1,2003-07-01T18:09:00Z,26.2168,-96.4998,4.0,0.994082492,5.194206302,2.78,'11111222,11111222,11111222' 
TABS,ioos:station:wmo:42045:1,2003-07-01T18:39:00Z,26.2168,-96.4998,4.0,0.411946598,95.57260569,2.01,'11111222,11111222,11111222' 
TABS,ioos:station:wmo:42045:1,2003-07-01T19:09:00Z,26.2168,-96.4998,4.0,0.933488082,45.86773373,2.25,'11111222,11111222,11111222' 
TABS,ioos:station:wmo:42045:1,2003-07-01T19:39:00Z,26.2168,-96.4998,4.0,1.590125781,90.72108285,3.08,'11111222,11111222,11111222' 
TABS,ioos:station:wmo:42045:1,2003-07-01T20:09:00Z,26.2168,-96.4998,4.0,1.796440926,101.5605247,3.43,'11111222,11111222,11111222' 
TABS,ioos:station:wmo:42045:1,2003-07-01T20:39:00Z,26.2168,-96.4998,4.0,2.115892247,98.97302655,3.72,'11111222,11111222,11111222' 
TABS,ioos:station:wmo:42045:1,2003-07-01T21:09:00Z,26.2168,-96.4998,4.0,2.667901797,103.8803711,4.13,'11111222,11111222,11111222' 
TABS,ioos:station:wmo:42045:1,2003-07-01T21:39:00Z,26.2168,-96.4998,4.0,3.314890647,86.88686974,4.81,'11111222,11111222,11111222' 
TABS,ioos:station:wmo:42045:1,2003-07-01T22:09:00Z,26.2168,-96.4998,4.0,2.941105234,99.59082731,4.51,'11111222,11111222,11111222' 
TABS,ioos:station:wmo:42045:1,2003-07-01T22:39:00Z,26.2168,-96.4998,4.0,2.709778589,85.13059349,4.11,'11111222,11111222,11111222' 
TABS,ioos:station:wmo:42045:1,2003-07-01T23:09:00Z,26.2168,-96.4998,4.0,2.868449058,94.39911599,4.26,'11111222,11111222,11111222' 
TABS,ioos:station:wmo:42045:1,2003-07-01T23:39:00Z,26.2168,-96.4998,4.0,3.850012987,89.85075956,5.67,'11111222,11111222,11111222' 
TABS,ioos:station:wmo:42045:1,2003-07-02T00:09:00Z,26.2168,-96.4998,4.0,3.856228728,106.8846338,5.64,'11111222,11111222,11111222' 
TABS,ioos:station:wmo:42045:1,2003-07-02T00:39:00Z,26.2168,-96.4998,4.0,3.991039965,107.7997433,5.61,'11111222,11111222,11111222' 
TABS,ioos:station:wmo:42045:1,2003-07-02T01:09:00Z,26.2168,-96.4998,4.0,4.003598381,111.6954796,5.84,'11111222,11111222,11111222' 
TABS,ioos:station:wmo:42045:1,2003-07-02T01:39:00Z,26.2168,-96.4998,4.0,4.332678156,122.8468088,6.16,'11111222,11111222,11111222' 
TABS,ioos:station:wmo:42045:1,2003-07-02T02:09:00Z,26.2168,-96.4998,4.0,3.824042364,119.4478852,5.53,'11111222,11111222,11111222' 
TABS,ioos:station:wmo:42045:1,2003-07-02T02:39:00Z,26.2168,-96.4998,4.0,3.973625549,120.88992,5.41,'11111222,11111222,11111222' 
TABS,ioos:station:wmo:42045:1,2003-07-02T03:09:00Z,26.2168,-96.4998,4.0,3.780581966,119.8204238,5.52,'11111222,11111222,11111222' 
TABS,ioos:station:wmo:42045:1,2003-07-02T03:39:00Z,26.2168,-96.4998,4.0,4.025344706,131.1728598,5.87,'11111222,11111222,11111222' 
TABS,ioos:station:wmo:42045:1,2003-07-02T04:09:00Z,26.2168,-96.4998,4.0,4.317649824,150.2883178,6.28,'11111222,11111222,11111222' 
TABS,ioos:station:wmo:42045:1,2003-07-02T04:39:00Z,26.2168,-96.4998,4.0,3.999449962,146.6280861,5.94,'11111222,11111222,11111222' 
TABS,ioos:station:wmo:42045:1,2003-07-02T05:09:00Z,26.2168,-96.4998,4.0,5.256938272,160.3244379,7.26,'11111222,11111222,11111222' 
TABS,ioos:station:wmo:42045:1,2003-07-02T05:39:00Z,26.2168,-96.4998,4.0,6.294577031,177.8151091,8.0,'11111222,11111222,11111222' 
TABS,ioos:station:wmo:42045:1,2003-07-02T06:09:00Z,26.2168,-96.4998,4.0,5.920684082,179.1292289,8.25,'11111222,11111222,11111222' 
TABS,ioos:station:wmo:42045:1,2003-07-02T06:39:00Z,26.2168,-96.4998,4.0,6.548014966,189.4049704,8.47,'11111222,11111222,11111222' 
TABS,ioos:station:wmo:42045:1,2003-07-02T07:09:00Z,26.2168,-96.4998,4.0,6.470741843,185.5874414,8.89,'11111222,11111222,11111222' 
TABS,ioos:station:wmo:42045:1,2003-07-02T07:39:00Z,26.2168,-96.4998,4.0,6.474079085,190.7720635,9.45,'11111222,11111222,11111222' 
TABS,ioos:station:wmo:42045:1,2003-07-02T08:09:00Z,26.2168,-96.4998,4.0,6.669167864,195.3909221,9.17,'11111222,11111222,11111222' 
TABS,ioos:station:wmo:42045:1,2003-07-02T08:39:00Z,26.2168,-96.4998,4.0,5.878817908,192.4761331,8.28,'11111222,11111222,11111222' 
TABS,ioos:station:wmo:42045:1,2003-07-02T09:09:00Z,26.2168,-96.4998,4.0,5.892070943,193.045817,8.35,'11111222,11111222,11111222' 
TABS,ioos:station:wmo:42045:1,2003-07-02T09:39:00Z,26.2168,-96.4998,4.0,5.997149323,197.1661164,8.13,'11111222,11111222,11111222' 
TABS,ioos:station:wmo:42045:1,2003-07-02T10:09:00Z,26.2168,-96.4998,4.0,5.010788361,194.0918864,7.51,'11111222,11111222,11111222' 
TABS,ioos:station:wmo:42045:1,2003-07-02T10:39:00Z,26.2168,-96.4998,4.0,4.703201038,197.3178579,7.04,'11111222,11111222,11111222' 
TABS,ioos:station:wmo:42045:1,2003-07-02T11:09:00Z,26.2168,-96.4998,4.0,3.497384737,194.2350876,5.57,'11111222,11111222,11111222' 
TABS,ioos:station:wmo:42045:1,2003-07-02T11:39:00Z,26.2168,-96.4998,4.0,4.300813876,198.0138323,5.89,'11111222,11111222,11111222' 
TABS,ioos:station:wmo:42045:1,2003-07-02T12:09:00Z,26.2168,-96.4998,4.0,3.730804203,196.3463789,5.84,'11111222,11111222,11111222' 
TABS,ioos:station:wmo:42045:1,2003-07-02T12:39:00Z,26.2168,-96.4998,4.0,3.353356527,214.3062577,4.88,'11111222,11111222,11111222' 
TABS,ioos:station:wmo:42045:1,2003-07-02T13:09:00Z,26.2168,-96.4998,4.0,1.882817038,206.1569239,3.6,'11111222,11111222,11111222' 
TABS,ioos:station:wmo:42045:1,2003-07-02T13:39:00Z,26.2168,-96.4998,4.0,1.732974322,251.1468853,3.27,'11111222,11111222,11111222' 
TABS,ioos:station:wmo:42045:1,2003-07-02T14:09:00Z,26.2168,-96.4998,4.0,1.476109752,232.4314958,3.17,'11111222,11111222,11111222' 
TABS,ioos:station:wmo:42045:1,2003-07-02T14:39:00Z,26.2168,-96.4998,4.0,1.62111073,218.9911133,2.88,'11111222,11111222,11111222' 
TABS,ioos:station:wmo:42045:1,2003-07-02T15:09:00Z,26.2168,-96.4998,4.0,1.704963343,252.9467251,3.12,'11111222,11111222,11111222' 
TABS,ioos:station:wmo:42045:1,2003-07-02T15:39:00Z,26.2168,-96.4998,4.0,1.586190405,275.063605,2.83,'11111222,11111222,11111222' 
TABS,ioos:station:wmo:42045:1,2003-07-02T16:09:00Z,26.2168,-96.4998,4.0,1.227721467,293.0147006,2.35,'11111222,11111222,11111222' 
TABS,ioos:station:wmo:42045:1,2003-07-02T16:39:00Z,26.2168,-96.4998,4.0,0.471699057,274.8645031,1.87,'11111222,11111222,11111222' 
TABS,ioos:station:wmo:42045:1,2003-07-02T17:09:00Z,26.2168,-96.4998,4.0,0.644748013,23.78176435,2.28,'11111222,11111222,11111222' 
TABS,ioos:station:wmo:42045:1,2003-07-02T17:39:00Z,26.2168,-96.4998,4.0,1.2523977,115.5423822,2.99,'11111222,11111222,11111222' 
TABS,ioos:station:wmo:42045:1,2003-07-02T18:09:00Z,26.2168,-96.4998,4.0,1.186802427,110.7259313,2.86,'11111222,11111222,11111222' 
TABS,ioos:station:wmo:42045:1,2003-07-02T18:39:00Z,26.2168,-96.4998,4.0,1.674305826,127.9653562,3.25,'11111222,11111222,11111222' 
TABS,ioos:station:wmo:42045:1,2003-07-02T19:09:00Z,26.2168,-96.4998,4.0,1.669760462,146.9764201,3.28,'11111222,11111222,11111222' 
TABS,ioos:station:wmo:42045:1,2003-07-02T19:39:00Z,26.2168,-96.4998,4.0,2.900827468,133.0446389,7.41,'11111222,11111222,11111222' 
TABS,ioos:station:wmo:42045:1,2003-07-02T20:09:00Z,26.2168,-96.4998,4.0,5.167368769,110.5045081,7.15,'11111222,11111222,11111222' 
TABS,ioos:station:wmo:42045:1,2003-07-02T20:39:00Z,26.2168,-96.4998,4.0,8.756648902,162.0412056,12.39,'11111222,11111222,11111222' 
TABS,ioos:station:wmo:42045:1,2003-07-02T21:09:00Z,26.2168,-96.4998,4.0,6.161590704,111.3182833,9.07,'11111222,11111222,11111222' 
TABS,ioos:station:wmo:42045:1,2003-07-02T21:39:00Z,26.2168,-96.4998,4.0,3.513004412,144.5005348,5.93,'11111222,11111222,11111222' 
TABS,ioos:station:wmo:42045:1,2003-07-02T22:09:00Z,26.2168,-96.4998,4.0,3.785564687,150.048895,5.59,'11111222,11111222,11111222' 
TABS,ioos:station:wmo:42045:1,2003-07-02T22:39:00Z,26.2168,-96.4998,4.0,5.512204641,148.501735,7.95,'11111222,11111222,11111222' 
TABS,ioos:station:wmo:42045:1,2003-07-02T23:09:00Z,26.2168,-96.4998,4.0,5.008552685,150.0567519,7.35,'11111222,11111222,11111222' 
TABS,ioos:station:wmo:42045:1,2003-07-02T23:39:00Z,26.2168,-96.4998,4.0,5.051148384,140.5432948,7.22,'11111222,11111222,11111222' 
TABS,ioos:station:wmo:42045:1,2003-07-03T00:09:00Z,26.2168,-96.4998,4.0,6.055551172,152.8851324,8.78,'11111222,11111222,11111222' 
TABS,ioos:station:wmo:42045:1,2003-07-03T00:39:00Z,26.2168,-96.4998,4.0,6.027943264,145.2029426,8.57,'11111222,11111222,11111222' 
TABS,ioos:station:wmo:42045:1,2003-07-03T01:09:00Z,26.2168,-96.4998,4.0,5.857926254,159.3068414,8.14,'11111222,11111222,11111222' 
TABS,ioos:station:wmo:42045:1,2003-07-03T01:39:00Z,26.2168,-96.4998,4.0,5.646892951,164.068789,8.06,'11111222,11111222,11111222' 
TABS,ioos:station:wmo:42045:1,2003-07-03T02:09:00Z,26.2168,-96.4998,4.0,6.044973118,166.9985198,8.46,'11111222,11111222,11111222' 
TABS,ioos:station:wmo:42045:1,2003-07-03T02:39:00Z,26.2168,-96.4998,4.0,5.759696173,164.4921104,8.11,'11111222,11111222,11111222' 
TABS,ioos:station:wmo:42045:1,2003-07-03T03:09:00Z,26.2168,-96.4998,4.0,5.722971256,168.1012678,8.18,'11111222,11111222,11111222' 
TABS,ioos:station:wmo:42045:1,2003-07-03T03:39:00Z,26.2168,-96.4998,4.0,5.729336785,159.8889918,7.92,'11111222,11111222,11111222' 
TABS,ioos:station:wmo:42045:1,2003-07-03T04:09:00Z,26.2168,-96.4998,4.0,5.623041881,160.7919572,7.95,'11111222,11111222,11111222' 
TABS,ioos:station:wmo:42045:1,2003-07-03T04:39:00Z,26.2168,-96.4998,4.0,5.613065116,161.7267005,8.03,'11111222,11111222,11111222' 
TABS,ioos:station:wmo:42045:1,2003-07-03T05:09:00Z,26.2168,-96.4998,4.0,5.863147619,164.8736889,7.9,'11111222,11111222,11111222' 
TABS,ioos:station:wmo:42045:1,2003-07-03T05:39:00Z,26.2168,-96.4998,4.0,5.707933076,161.724018,8.18,'11111222,11111222,11111222' 
TABS,ioos:station:wmo:42045:1,2003-07-03T06:09:00Z,26.2168,-96.4998,4.0,5.655201146,163.7765172,7.86,'11111222,11111222,11111222' 
TABS,ioos:station:wmo:42045:1,2003-07-03T06:39:00Z,26.2168,-96.4998,4.0,5.591287866,170.8411482,7.86,'11111222,11111222,11111222' 
TABS,ioos:station:wmo:42045:1,2003-07-03T07:09:00Z,26.2168,-96.4998,4.0,6.054295995,171.6426053,8.26,'11111222,11111222,11111222' 
TABS,ioos:station:wmo:42045:1,2003-07-03T07:39:00Z,26.2168,-96.4998,4.0,6.582674229,170.9099548,9.41,'11111222,11111222,11111222' 
TABS,ioos:station:wmo:42045:1,2003-07-03T08:09:00Z,26.2168,-96.4998,4.0,6.135568433,170.9984764,8.58,'11111222,11111222,11111222' 
TABS,ioos:station:wmo:42045:1,2003-07-03T08:39:00Z,26.2168,-96.4998,4.0,6.336244945,171.1028206,9.19,'11111222,11111222,11111222' 
TABS,ioos:station:wmo:42045:1,2003-07-03T09:09:00Z,26.2168,-96.4998,4.0,6.386775399,166.8778673,8.93,'11111222,11111222,11111222' 
TABS,ioos:station:wmo:42045:1,2003-07-03T09:39:00Z,26.2168,-96.4998,4.0,6.480895,175.3980998,8.91,'11111222,11111222,11111222' 
TABS,ioos:station:wmo:42045:1,2003-07-03T10:09:00Z,26.2168,-96.4998,4.0,6.598257346,177.1334756,9.51,'11111222,11111222,11111222' 
TABS,ioos:station:wmo:42045:1,2003-07-03T10:39:00Z,26.2168,-96.4998,4.0,6.34315379,178.193376,9.07,'11111222,11111222,11111222' 
TABS,ioos:station:wmo:42045:1,2003-07-03T11:09:00Z,26.2168,-96.4998,4.0,5.790008636,180.0991666,8.32,'11111222,11111222,11111222' 
TABS,ioos:station:wmo:42045:1,2003-07-03T11:39:00Z,26.2168,-96.4998,4.0,5.897609685,174.4539673,8.29,'11111222,11111222,11111222' 
TABS,ioos:station:wmo:42045:1,2003-07-03T12:09:00Z,26.2168,-96.4998,4.0,5.618051264,175.4059679,7.81,'11111222,11111222,11111222' 
TABS,ioos:station:wmo:42045:1,2003-07-03T12:39:00Z,26.2168,-96.4998,4.0,5.567566793,167.2370269,7.83,'11111222,11111222,11111222' 
TABS,ioos:station:wmo:42045:1,2003-07-03T13:09:00Z,26.2168,-96.4998,4.0,4.725304223,175.3876226,7.26,'11111222,11111222,11111222' 
TABS,ioos:station:wmo:42045:1,2003-07-03T13:39:00Z,26.2168,-96.4998,4.0,9.305535987,171.7830517,14.69,'11111222,11111222,11111222' 
TABS,ioos:station:wmo:42045:1,2003-07-03T14:09:00Z,26.2168,-96.4998,4.0,5.372094564,181.6002314,8.29,'11111222,11111222,11111222' 
TABS,ioos:station:wmo:42045:1,2003-07-03T14:39:00Z,26.2168,-96.4998,4.0,3.667505965,158.4019243,6.17,'11111222,11111222,11111222' 
TABS,ioos:station:wmo:42045:1,2003-07-03T15:09:00Z,26.2168,-96.4998,4.0,2.769909746,165.3619662,4.65,'11111222,11111222,11111222' 
TABS,ioos:station:wmo:42045:1,2003-07-03T15:39:00Z,26.2168,-96.4998,4.0,2.374468362,194.3875647,4.46,'11111222,11111222,11111222' 
TABS,ioos:station:wmo:42045:1,2003-07-03T16:09:00Z,26.2168,-96.4998,4.0,1.701558109,279.1301551,3.54,'11111222,11111222,11111222' 
TABS,ioos:station:wmo:42045:1,2003-07-03T16:39:00Z,26.2168,-96.4998,4.0,0.894427191,333.4348005,3.27,'11111222,11111222,11111222' 
TABS,ioos:station:wmo:42045:1,2003-07-03T17:09:00Z,26.2168,-96.4998,4.0,0.866833317,16.76230481,4.66,'11111222,11111222,11111222' 
TABS,ioos:station:wmo:42045:1,2003-07-03T17:39:00Z,26.2168,-96.4998,4.0,7.417715282,262.2522461,12.55,'11111222,11111222,11111222' 
TABS,ioos:station:wmo:42045:1,2003-07-03T18:09:00Z,26.2168,-96.4998,4.0,3.755875397,273.2052084,6.25,'11111222,11111222,11111222' 
TABS,ioos:station:wmo:42045:1,2003-07-03T18:39:00Z,26.2168,-96.4998,4.0,4.625537807,316.2262198,6.87,'11111222,11111222,11111222' 
TABS,ioos:station:wmo:42045:1,2003-07-03T19:09:00Z,26.2168,-96.4998,4.0,3.604497191,357.137391,5.93,'11111222,11111222,11111222' 
TABS,ioos:station:wmo:42045:1,2003-07-03T19:39:00Z,26.2168,-96.4998,4.0,2.662217121,36.13784063,5.46,'11111222,11111222,11111222' 
TABS,ioos:station:wmo:42045:1,2003-07-03T20:09:00Z,26.2168,-96.4998,4.0,2.500659913,14.59171162,5.01,'11111222,11111222,11111222' 
TABS,ioos:station:wmo:42045:1,2003-07-03T20:39:00Z,26.2168,-96.4998,4.0,3.988107321,61.0566758,6.32,'11111222,11111222,11111222' 
TABS,ioos:station:wmo:42045:1,2003-07-03T21:09:00Z,26.2168,-96.4998,4.0,4.46861276,74.68826874,6.61,'11111222,11111222,11111222' 
TABS,ioos:station:wmo:42045:1,2003-07-03T21:39:00Z,26.2168,-96.4998,4.0,5.561888169,78.48764411,8.15,'11111222,11111222,11111222' 
TABS,ioos:station:wmo:42045:1,2003-07-03T22:09:00Z,26.2168,-96.4998,4.0,6.38364316,80.71434456,9.13,'11111222,11111222,11111222' 
TABS,ioos:station:wmo:42045:1,2003-07-03T22:39:00Z,26.2168,-96.4998,4.0,5.844458914,80.24717695,8.85,'11111222,11111222,11111222' 
TABS,ioos:station:wmo:42045:1,2003-07-03T23:09:00Z,26.2168,-96.4998,4.0,5.770216634,89.50309545,8.36,'11111222,11111222,11111222' 
TABS,ioos:station:wmo:42045:1,2003-07-03T23:39:00Z,26.2168,-96.4998,4.0,6.311782633,88.63781545,8.66,'11111222,11111222,11111222' 
TABS,ioos:station:wmo:42045:1,2003-07-04T00:09:00Z,26.2168,-96.4998,4.0,6.553693615,88.07586837,8.94,'11111222,11111222,11111222' 
TABS,ioos:station:wmo:42045:1,2003-07-04T00:39:00Z,26.2168,-96.4998,4.0,6.382005954,125.4336521,8.92,'11111222,11111222,11111222' 
TABS,ioos:station:wmo:42045:1,2003-07-04T01:09:00Z,26.2168,-96.4998,4.0,6.656966276,131.8339966,9.54,'11111222,11111222,11111222' 
TABS,ioos:station:wmo:42045:1,2003-07-04T01:39:00Z,26.2168,-96.4998,4.0,6.923185683,135.7610916,9.89,'11111222,11111222,11111222' 
TABS,ioos:station:wmo:42045:1,2003-07-04T02:09:00Z,26.2168,-96.4998,4.0,6.353022903,144.1585795,8.89,'11111222,11111222,11111222' 
TABS,ioos:station:wmo:42045:1,2003-07-04T02:39:00Z,26.2168,-96.4998,4.0,6.522361536,140.5996419,9.81,'11111222,11111222,11111222' 
TABS,ioos:station:wmo:42045:1,2003-07-04T03:09:00Z,26.2168,-96.4998,4.0,6.757936075,137.2190373,9.58,'11111222,11111222,11111222' 
TABS,ioos:station:wmo:42045:1,2003-07-04T03:39:00Z,26.2168,-96.4998,4.0,7.179310552,136.4112532,9.57,'11111222,11111222,11111222' 
TABS,ioos:station:wmo:42045:1,2003-07-04T04:09:00Z,26.2168,-96.4998,4.0,6.883153347,142.0815114,9.63,'11111222,11111222,11111222' 
TABS,ioos:station:wmo:42045:1,2003-07-04T04:39:00Z,26.2168,-96.4998,4.0,6.70629555,136.6921003,9.61,'11111222,11111222,11111222' 
TABS,ioos:station:wmo:42045:1,2003-07-04T05:09:00Z,26.2168,-96.4998,4.0,6.614000302,143.1130735,9.44,'11111222,11111222,11111222' 
TABS,ioos:station:wmo:42045:1,2003-07-04T05:39:00Z,26.2168,-96.4998,4.0,6.232214695,146.7181945,8.8,'11111222,11111222,11111222' 
TABS,ioos:station:wmo:42045:1,2003-07-04T06:09:00Z,26.2168,-96.4998,4.0,6.391822901,154.5176555,9.01,'11111222,11111222,11111222' 
TABS,ioos:station:wmo:42045:1,2003-07-04T06:39:00Z,26.2168,-96.4998,4.0,7.457305143,154.8441284,10.1,'11111222,11111222,11111222' 
TABS,ioos:station:wmo:42045:1,2003-07-04T07:09:00Z,26.2168,-96.4998,4.0,6.437647086,151.9225538,9.06,'11111222,11111222,11111222' 
TABS,ioos:station:wmo:42045:1,2003-07-04T07:39:00Z,26.2168,-96.4998,4.0,8.094751386,173.9726943,12.24,'11111222,11111222,11111222' 
TABS,ioos:station:wmo:42045:1,2003-07-04T08:09:00Z,26.2168,-96.4998,4.0,7.294004387,173.7034065,10.42,'11111222,11111222,11111222' 
TABS,ioos:station:wmo:42045:1,2003-07-04T08:39:00Z,26.2168,-96.4998,4.0,7.519960106,159.2034392,10.87,'11111222,11111222,11111222' 
TABS,ioos:station:wmo:42045:1,2003-07-04T09:09:00Z,26.2168,-96.4998,4.0,8.062257748,156.6150441,10.64,'11111222,11111222,11111222' 
TABS,ioos:station:wmo:42045:1,2003-07-04T09:39:00Z,26.2168,-96.4998,4.0,7.236186841,162.4667353,10.31,'11111222,11111222,11111222' 
TABS,ioos:station:wmo:42045:1,2003-07-04T10:09:00Z,26.2168,-96.4998,4.0,8.170495701,156.1018586,10.86,'11111222,11111222,11111222' 
TABS,ioos:station:wmo:42045:1,2003-07-04T10:39:00Z,26.2168,-96.4998,4.0,8.240024272,152.066856,11.17,'11111222,11111222,11111222' 
TABS,ioos:station:wmo:42045:1,2003-07-04T11:09:00Z,26.2168,-96.4998,4.0,8.073524633,150.5458796,11.16,'11111222,11111222,11111222' 
TABS,ioos:station:wmo:42045:1,2003-07-04T11:39:00Z,26.2168,-96.4998,4.0,8.257384574,147.965482,11.15,'11111222,11111222,11111222' 
TABS,ioos:station:wmo:42045:1,2003-07-04T12:09:00Z,26.2168,-96.4998,4.0,8.135699109,151.3560945,11.2,'11111222,11111222,11111222' 
TABS,ioos:station:wmo:42045:1,2003-07-04T12:39:00Z,26.2168,-96.4998,4.0,7.320887924,153.4702218,10.25,'11111222,11111222,11111222' 
TABS,ioos:station:wmo:42045:1,2003-07-04T13:09:00Z,26.2168,-96.4998,4.0,7.550238407,152.3831092,10.61,'11111222,11111222,11111222' 
TABS,ioos:station:wmo:42045:1,2003-07-04T13:39:00Z,26.2168,-96.4998,4.0,7.615773106,156.8016742,11.22,'11111222,11111222,11111222' 
TABS,ioos:station:wmo:42045:1,2003-07-04T14:09:00Z,26.2168,-96.4998,4.0,7.702551525,155.6979049,10.63,'11111222,11111222,11111222' 
TABS,ioos:station:wmo:42045:1,2003-07-04T14:39:00Z,26.2168,-96.4998,4.0,7.287715691,157.2352546,10.89,'11111222,11111222,11111222' 
TABS,ioos:station:wmo:42045:1,2003-07-04T15:09:00Z,26.2168,-96.4998,4.0,7.06303759,156.5566859,10.17,'11111222,11111222,11111222' 
TABS,ioos:station:wmo:42045:1,2003-07-04T15:39:00Z,26.2168,-96.4998,4.0,6.599765147,161.263318,9.4,'11111222,11111222,11111222' 
TABS,ioos:station:wmo:42045:1,2003-07-04T16:09:00Z,26.2168,-96.4998,4.0,6.276941931,157.5208286,9.87,'11111222,11111222,11111222' 
TABS,ioos:station:wmo:42045:1,2003-07-04T16:39:00Z,26.2168,-96.4998,4.0,6.173005751,164.2078439,8.93,'11111222,11111222,11111222' 
TABS,ioos:station:wmo:42045:1,2003-07-04T17:09:00Z,26.2168,-96.4998,4.0,6.337546844,165.6570226,9.53,'11111222,11111222,11111222' 
TABS,ioos:station:wmo:42045:1,2003-07-04T17:39:00Z,26.2168,-96.4998,4.0,5.976520727,165.2664412,8.72,'11111222,11111222,11111222' 
TABS,ioos:station:wmo:42045:1,2003-07-04T18:09:00Z,26.2168,-96.4998,4.0,6.26055908,165.0983043,9.22,'11111222,11111222,11111222' 
TABS,ioos:station:wmo:42045:1,2003-07-04T18:39:00Z,26.2168,-96.4998,4.0,6.536520481,161.2603961,9.47,'11111222,11111222,11111222' 